Vorticity
22 30 14 37 14 29 21 27 3 8 9 11 11 7 8 9 8 10 12 8 7 8 9 8 8 9 9 9 8 8 8 9 9 6 7 9 6 9 9 6 5 6 6
16 37 26 57 -11 -3 -5 -4 8 8 9 9 7 7 9 10 6 9 8 9 9 10 8 8 9 10 9 9 8 9 10 10 9 10 12 8 8 8 6 7 6 6 7
7 -7 7 22 13 5 11 8 6 6 6 7 7 9 8 7 9 9 10 8 6 6 8 10 8 9 9 9 8 8 9 9 8 7 7 8 8 7 7 5 4 4 4
1 13 8 5 8 7 3 3 5 3 3 5 8 10 10 10 9 9 6 7 7 7 6 5 7 7 8 9 8 8 7 8 6 6 8 8 7 7 4 4 4 4 7
9 8 7 8 9 8 11 5 2 2 3 4 6 8 8 7 6 5 6 5 5 6 7 7 7 8 7 9 10 8 7 7 7 9 10 10 7 9 6 7 9 10 5
8 9 10 7 9 7 7 4 2 4 5 8 10 12 8 6 3 3 10 9 7 7 8 7 6 6 7 6 8 6 7 6 8 9 10 8 7 9 6 5 12 9 4
7 7 6 7 7 5 -1 2 3 5 7 9 10 5 3 2 5 6 5 1 11 14 10 9 9 8 8 12 6 9 8 9 11 8 7 6 5 6 7 5 9 11 7
8 6 5 4 4 5 5 3 -2 4 3 13 6 4 5 6 9 9 13 -1 7 8 10 6 0 4 10 14 10 4 15 10 4 12 10 10 12 7 6 8 10 2 8
7 8 7 6 4 2 7 8 8 4 -0 14 6 5 2 9 -3 6 2 5 -1 -3 2 8 18 14 11 7 10 12 6 9 14 11 11 7 2 3 11 11 9 11 8
6 6 7 5 6 9 15 15 7 6 -0 10 4 5 4 4 6 13 6 4 5 16 7 14 6 9 8 7 4 7 9 5 9 9 12 12 12 9 12 6 6 10 17
7 6 6 10 10 14 12 6 5 6 3 7 4 5 7 7 1 10 9 6 15 8 17 8 3 3 5 5 8 6 8 11 8 8 10 11 12 14 16 14 12 11 18
8 7 10 14 14 4 5 6 7 3 5 6 4 4 9 14 11 7 11 4 4 4 6 2 3 -0 2 7 7 3 7 9 9 9 10 12 19 14 9 7 15 21 16
7 8 7 12 6 6 7 7 4 8 8 7 7 12 10 7 0 3 20 1 14 10 5 4 3 5 8 3 4 6 6 10 12 10 6 12 8 9 10 14 18 19 19
6 7 5 8 8 7 8 6 7 7 8 9 11 12 7 3 3 6 11 3 8 5 9 4 4 12 5 12 7 6 10 8 12 9 18 11 3 -4 5 14 17 18 11
7 6 5 6 7 6 3 3 4 7 8 10 6 6 7 5 2 7 6 -3 0 10 6 -1 -3 -7 15 20 8 10 10 11 12 9 15 7 2 -8 1 15 16 14 11
7 4 7 5 5 6 4 3 5 9 9 5 4 4 4 2 2 8 4 0 -4 18 5 2 10 2 16 12 9 6 8 7 14 12 5 13 13 13 -1 14 14 12 14
7 5 5 6 5 4 4 3 6 8 9 5 5 4 4 6 9 6 4 4 20 6 3 8 3 25 6 16 2 12 1 7 17 11 4 14 13 12 6 12 12 11 13
8 5 4 5 5 5 5 4 7 7 8 4 6 9 10 6 2 5 7 -3 2 8 4 2 22 8 24 12 13 19 2 14 13 9 7 13 2 26 9 10 12 18 13
10 7 5 4 6 7 7 8 11 9 5 1 1 -1 1 4 7 2 1 -3 -3 2 -2 -0 0 9 22 17 6 13 17 3 9 12 4 16 14 19 15 7 15 22 9
7 11 5 5 5 6 7 10 13 7 6 1 2 1 3 5 5 2 3 -0 -0 -1 0 -0 11 18 -7 31 15 20 -5 23 7 3 3 13 -1 23 14 0 12 17 9
8 11 8 7 7 8 7 13 12 10 9 3 3 4 6 4 3 3 1 -6 0 -1 1 18 54 4 21 21 9 10 12 10 8 11 -5 10 2 19 15 10 11 17 6
10 13 8 7 5 7 11 7 10 12 3 4 3 2 2 0 -0 -3 -0 -3 -2 28 43 23 20 13 27 -2 27 4 18 -57 15 21 18 -2 11 2 13 16 11 14 7
13 8 7 6 9 7 7 6 8 15 7 3 3 1 -1 -1 -1 -2 2 0 43 8 2 8 5 13 22 6 11 39 5 -4 -8 -6 15 18 21 15 9 25 12 13 7
10 10 12 8 7 10 11 8 4 13 12 2 -2 -4 -2 2 -2 -0 1 -5 26 -6 16 6 15 -8 27 -12 4 16 23 21 20 0 13 12 -10 9 25 20 15 10 5
7 6 7 -6 -1 9 7 -2 15 6 9 15 1 -3 1 1 -2 -4 1 -1 21 10 5 10 9 -12 32 -8 6 -12 28 -10 -2 -3 12 15 1 4 26 23 15 10 4
5 -0 -2 7 -7 -5 1 12 1 7 50 18 4 1 1 -8 -4 6 9 -34 23 21 10 -9 9 15 12 -4 14 28 6 7 -2 22 -18 19 13 -0 16 23 19 8 6
Height
5901 5903 5906 5907 5913 5916 5921 5926 5928 5932 5934 5935 5936 5937 5936 5937 5937 5938 5937 5936 5933 5933 5931 5929 5926 5924 5922 5919 5917 5915 5912 5910 5908 5905 5902 5898 5894 5891 5887 5883 5879 5875 5871
5902 5905 5908 5910 5916 5921 5926 5928 5930 5933 5934 5936 5936 5935 5935 5936 5938 5938 5937 5935 5934 5932 5929 5927 5925 5923 5920 5917 5915 5913 5910 5907 5905 5902 5898 5895 5891 5887 5883 5879 5874 5869 5865
5913 5916 5917 5919 5922 5925 5928 5930 5931 5934 5935 5936 5936 5936 5937 5938 5939 5938 5937 5935 5933 5931 5929 5927 5925 5921 5919 5916 5913 5911 5908 5904 5901 5897 5894 5891 5887 5882 5878 5874 5869 5863 5858
5920 5919 5922 5924 5926 5927 5929 5931 5933 5934 5936 5937 5938 5938 5939 5939 5939 5937 5936 5934 5933 5931 5928 5926 5923 5921 5918 5915 5912 5909 5905 5902 5899 5895 5891 5887 5883 5879 5874 5868 5863 5858 5852
5921 5923 5924 5925 5928 5930 5932 5933 5934 5937 5939 5939 5939 5939 5940 5939 5938 5936 5935 5935 5932 5930 5929 5926 5924 5920 5917 5914 5910 5907 5903 5899 5896 5892 5888 5884 5879 5874 5869 5863 5857 5851 5847
5922 5924 5926 5927 5929 5931 5933 5936 5938 5939 5940 5940 5940 5940 5939 5938 5938 5937 5937 5935 5933 5931 5929 5925 5922 5919 5916 5912 5908 5904 5900 5896 5892 5888 5883 5878 5873 5868 5862 5856 5850 5844 5836
5923 5925 5928 5930 5932 5934 5936 5938 5940 5940 5941 5941 5941 5940 5940 5940 5940 5939 5938 5936 5933 5930 5927 5925 5921 5917 5913 5909 5906 5901 5897 5892 5889 5883 5878 5872 5867 5861 5856 5850 5844 5836 5828
5925 5927 5929 5932 5933 5936 5939 5940 5941 5941 5941 5941 5941 5940 5942 5942 5941 5939 5937 5934 5930 5928 5926 5922 5917 5913 5910 5906 5902 5898 5894 5889 5884 5879 5874 5868 5861 5854 5848 5841 5833 5826 5819
5926 5928 5930 5932 5934 5936 5938 5939 5940 5941 5941 5941 5941 5943 5942 5940 5939 5936 5934 5931 5928 5926 5923 5919 5915 5911 5907 5903 5900 5895 5890 5884 5879 5874 5866 5860 5853 5846 5839 5832 5825 5817 5809
5925 5927 5930 5932 5934 5936 5937 5938 5940 5940 5940 5941 5942 5941 5940 5938 5936 5935 5932 5930 5928 5924 5921 5917 5913 5909 5904 5899 5895 5890 5886 5880 5873 5866 5860 5853 5846 5839 5831 5824 5817 5810 5799
5924 5926 5929 5931 5933 5935 5936 5938 5939 5939 5939 5940 5941 5940 5938 5937 5936 5934 5931 5929 5927 5923 5919 5914 5910 5906 5901 5897 5891 5886 5880 5873 5867 5861 5854 5846 5840 5833 5826 5819 5809 5799 5791
5924 5925 5928 5930 5932 5934 5935 5936 5938 5938 5938 5939 5940 5938 5936 5935 5934 5932 5930 5927 5924 5920 5916 5912 5908 5903 5899 5893 5887 5880 5874 5867 5860 5854 5848 5840 5834 5826 5818 5810 5800 5790 5783
5922 5924 5926 5928 5930 5932 5934 5936 5937 5937 5937 5938 5937 5936 5935 5933 5932 5930 5928 5925 5921 5917 5914 5910 5906 5901 5895 5889 5882 5876 5870 5862 5854 5847 5841 5834 5827 5820 5812 5802 5794 5785 5778
5920 5922 5925 5927 5928 5931 5932 5934 5935 5934 5935 5935 5935 5934 5932 5931 5929 5927 5925 5922 5918 5914 5910 5906 5902 5896 5891 5883 5877 5871 5865 5858 5850 5843 5835 5827 5819 5811 5803 5794 5785 5777 5768
5918 5920 5922 5925 5928 5929 5930 5931 5931 5932 5932 5932 5931 5931 5929 5928 5927 5924 5921 5918 5914 5911 5907 5902 5897 5891 5885 5878 5873 5867 5860 5853 5845 5837 5828 5820 5813 5805 5796 5788 5777 5769 5762
5914 5916 5919 5922 5924 5926 5927 5927 5927 5929 5928 5928 5928 5926 5925 5924 5922 5919 5917 5913 5910 5906 5902 5897 5891 5885 5879 5872 5866 5860 5854 5847 5839 5831 5823 5815 5807 5799 5791 5782 5773 5764 5754
5911 5912 5916 5919 5921 5922 5923 5923 5923 5924 5924 5924 5923 5922 5920 5919 5917 5914 5912 5909 5904 5900 5895 5890 5885 5877 5871 5865 5860 5854 5848 5840 5833 5825 5818 5809 5801 5792 5783 5774 5764 5755 5747
5906 5908 5911 5914 5916 5917 5919 5919 5919 5919 5919 5920 5918 5917 5916 5914 5912 5909 5906 5903 5898 5893 5890 5884 5877 5870 5863 5858 5853 5847 5841 5834 5827 5820 5812 5803 5794 5785 5776 5768 5760 5751 5742
5902 5904 5906 5909 5912 5914 5915 5915 5915 5914 5915 5914 5913 5912 5910 5908 5906 5904 5900 5896 5891 5887 5883 5877 5870 5864 5858 5851 5846 5841 5834 5827 5821 5814 5807 5798 5788 5779 5770 5762 5754 5744 5736
5896 5899 5901 5904 5906 5908 5909 5910 5910 5909 5909 5909 5908 5906 5905 5902 5900 5897 5893 5888 5884 5880 5875 5870 5865 5859 5852 5846 5840 5832 5828 5823 5815 5808 5800 5791 5782 5774 5765 5756 5747 5738 5730
5890 5895 5897 5898 5900 5901 5903 5904 5904 5904 5903 5903 5901 5899 5898 5895 5893 5890 5886 5882 5877 5873 5869 5862 5854 5847 5844 5836 5832 5827 5821 5815 5809 5800 5793 5785 5776 5767 5759 5749 5740 5732 5725
5884 5888 5888 5890 5892 5894 5896 5896 5896 5895 5894 5894 5892 5891 5888 5885 5883 5879 5876 5874 5870 5865 5858 5852 5844 5837 5835 5830 5824 5820 5813 5805 5800 5793 5786 5778 5770 5761 5752 5743 5734 5726 5720
5876 5879 5881 5883 5886 5888 5889 5888 5888 5888 5888 5887 5885 5883 5880 5877 5874 5871 5867 5865 5864 5857 5848 5845 5840 5832 5827 5823 5819 5811 5806 5799 5794 5786 5779 5771 5763 5754 5747 5736 5728 5721 5714
5867 5871 5873 5876 5880 5881 5881 5880 5880 5879 5878 5877 5876 5871 5870 5867 5864 5861 5857 5854 5857 5851 5843 5838 5831 5825 5820 5815 5810 5804 5797 5791 5785 5777 5770 5763 5756 5747 5739 5730 5722 5716 5710
5859 5863 5867 5870 5871 5873 5873 5873 5871 5868 5865 5863 5861 5858 5856 5858 5855 5851 5847 5845 5846 5841 5835 5828 5823 5818 5814 5808 5802 5796 5790 5787 5779 5771 5762 5755 5748 5739 5731 5724 5717 5710 5703
5853 5857 5859 5860 5862 5863 5863 5862 5858 5854 5846 5839 5838 5839 5843 5848 5844 5840 5838 5838 5833 5829 5823 5819 5814 5808 5804 5800 5793 5788 5782 5777 5769 5763 5756 5748 5740 5732 5723 5717 5710 5705 5699